DW1902 Weather Reports


time (UTC)temp
C
wind
direction
speed
KPH
gust
KPH
rain 1hr
cm
rain 24hr
cm
rain mn
cm
humidity
%
barometer
mb
20260508132725 12 0 17.7 25.7 0.00 1.02 0.00 57 1001.1
20260508132215 12 0 12.9 22.5 0.00 1.02 0.00 59 1001.0
20260508131722 12 0 11.3 22.5 0.00 1.02 0.00 61 1001.1
20260508131216 12 0 12.9 22.5 0.00 1.02 0.00 61 1001.1
20260508130959 12 0 11.3 22.5 0.00 1.02 0.00 63 1001.1
20260508130213 12 0 3.2 9.7 0.00 1.02 0.00 69 1001.0
20260508125944 12 0 3.2 9.7 0.00 1.02 0.00 71 1001.1
20260508125718 12 0 3.2 9.7 0.00 1.02 0.00 71 1001.1
20260508125214 11 0 4.8 11.3 0.00 1.02 0.00 72 1001.0
20260508124714 11 0 8.0 11.3 0.00 1.02 0.00 72 1001.1
20260508124215 11 0 0.0 6.4 0.00 1.02 0.00 75 1001.1
20260508123712 10 0 1.6 6.4 0.00 1.02 0.00 76 1001.2
20260508123208 10 0 1.6 6.4 0.00 1.02 0.00 76 1001.1
20260508122954 10 0 0.0 8.0 0.00 1.02 0.00 78 1001.2
20260508122453 10 0 1.6 9.7 0.00 1.02 0.00 79 1001.2
20260508121707 9 0 4.8 9.7 0.00 1.02 0.00 80 1001.3
20260508121452 9 0 0.0 4.8 0.00 1.02 0.00 82 1001.4
20260508120952 8 0 0.0 9.7 0.00 1.02 0.00 83 1001.3
20260508120446 8 0 4.8 9.7 0.00 1.02 0.00 83 1001.3
20260508115703 8 0 4.8 8.0 0.00 1.02 0.00 84 1001.3
20260508115452 8 0 4.8 8.0 0.00 1.02 0.00 85 1001.3
20260508114703 8 0 4.8 8.0 0.00 1.02 0.00 86 1001.4
20260508114204 7 0 3.2 8.0 0.00 1.02 0.00 87 1001.5
20260508113702 7 0 4.8 8.0 0.00 1.02 0.00 87 1001.5
20260508113205 7 0 4.8 9.7 0.00 1.02 0.00 87 1001.6
20260508112702 7 0 6.4 9.7 0.00 1.02 0.00 88 1001.5
20260508112202 7 0 6.4 9.7 0.00 1.02 0.00 88 1001.5
20260508111702 7 0 6.4 9.7 0.00 1.02 0.00 89 1001.6
20260508111200 7 0 6.4 14.5 0.00 1.02 0.00 89 1001.5
20260508110944 7 0 8.0 16.1 0.00 1.02 0.00 89 1001.5
20260508110451 7 0 8.0 16.1 0.00 1.02 0.00 89 1001.5
20260508105659 7 0 4.8 14.5 0.00 1.04 0.00 90 1001.4
20260508105200 6 0 8.0 14.5 0.00 1.04 0.00 90 1001.4
20260508104941 6 0 8.0 14.5 0.00 1.04 0.00 90 1001.3
20260508104448 6 0 8.0 16.1 0.00 1.04 0.00 91 1001.2
20260508103658 6 0 8.0 16.1 0.00 1.04 0.00 91 1001.2
20260508103449 6 0 11.3 17.7 0.00 1.04 0.00 91 1001.2
20260508102658 6 0 9.7 17.7 0.00 1.04 0.00 92 1001.2
20260508102159 6 0 8.0 17.7 0.00 1.04 0.00 92 1001.0
20260508101658 6 0 8.0 14.5 0.00 1.04 0.00 92 1000.9
20260508101158 6 0 9.7 14.5 0.00 1.04 0.00 92 1000.9
20260508100657 6 0 8.0 11.3 0.00 1.04 0.00 92 1000.8
20260508100158 6 0 8.0 17.7 0.00 1.04 0.00 92 1000.8
20260508095656 6 0 9.7 17.7 0.00 1.04 0.00 92 1000.8
20260508095158 5 0 8.0 14.5 0.00 1.04 0.00 92 1000.7
20260508094815 5 0 6.4 9.7 0.00 1.07 0.00 92 1000.5
20260508094753 5 0 4.8 9.7 0.00 1.07 0.00 92 1000.7
20260508094221 5 0 6.4 9.7 0.00 1.07 0.00 92 1000.6
20260508093215 6 0 4.8 9.7 0.00 1.07 0.00 91 1000.3
20260508093209 5 0 4.8 9.7 0.00 1.07 0.00 92 1000.5
20260508093200 5 0 4.8 9.7 0.00 1.07 0.00 92 1000.5
20260508092620 6 0 4.8 9.7 0.00 1.07 0.00 92 1000.4
20260508092312 5 0 4.8 8.0 0.00 1.07 0.00 92 1000.4
20260508090941 6 0 6.4 14.5 0.00 1.09 0.00 92 1000.2
20260508090156 6 0 8.0 14.5 0.00 1.09 0.00 91 1000.3
20260508085656 6 0 9.7 16.1 0.00 1.09 0.00 91 1000.2
20260508085156 6 0 9.7 17.7 0.00 1.14 0.00 91 1000.1
20260508084940 6 0 9.7 20.9 0.00 1.14 0.00 91 1000.1
20260508084155 6 0 12.9 20.9 0.00 1.17 0.00 91 1000.1
20260508083656 6 0 9.7 19.3 0.00 1.17 0.00 91 1000.2
20260508083156 6 0 9.7 19.3 0.00 1.19 0.00 91 1000.4
20260508082654 6 0 11.3 16.1 0.00 1.22 0.00 91 1000.4
20260508082442 6 0 11.3 16.1 0.00 1.22 0.00 91 1000.4
20260508081654 6 0 9.7 16.1 0.00 1.22 0.00 91 1000.5
20260508081154 6 0 11.3 16.1 0.00 1.22 0.00 91 1000.4
20260508080655 6 0 9.7 16.1 0.00 1.22 0.00 91 1000.5
20260508080154 6 0 9.7 16.1 0.00 1.24 0.00 91 1000.4
20260508075937 6 0 8.0 14.5 0.00 1.24 0.00 91 1000.3
20260508075533 6 0 9.7 14.5 0.00 1.27 0.00 91 1000.1
20260508075229 6 0 8.0 14.5 0.00 1.27 0.00 91 1000.1
20260508074154 6 0 8.0 14.5 0.00 1.30 0.00 91 1000.2
20260508073653 6 0 6.4 11.3 0.00 1.32 0.00 91 1000.2
20260508073154 6 0 8.0 14.5 0.00 1.37 0.00 91 1000.3
20260508072654 6 0 8.0 16.1 0.00 1.40 0.00 91 1000.3
20260508072153 6 0 9.7 16.1 0.00 1.42 0.00 91 1000.2
20260508071944 6 0 6.4 14.5 0.00 1.42 0.00 90 1000.2
20260508071153 6 0 4.8 9.7 0.00 1.42 0.00 90 1000.3
20260508070653 6 0 4.8 9.7 0.00 1.45 0.00 90 1000.4
20260508070153 6 0 4.8 11.3 0.00 1.50 0.00 90 1000.5
20260508065652 6 0 8.0 16.1 0.00 1.50 0.00 90 1000.5
20260508065153 6 0 6.4 16.1 0.00 1.50 0.00 90 1000.6
20260508064652 6 0 8.0 14.5 0.00 1.50 0.00 90 1000.7
20260508064151 6 0 8.0 16.1 0.00 1.55 0.00 90 1000.6
20260508063652 6 0 9.7 16.1 0.00 1.57 0.00 90 1000.6
20260508063152 6 0 9.7 16.1 0.00 1.60 0.00 89 1000.6
20260508062651 6 0 8.0 16.1 0.00 1.63 0.00 89 1000.6
20260508062245 6 0 8.0 19.3 0.00 1.65 0.00 89 1000.6
20260508062230 6 0 9.7 19.3 0.00 1.63 0.00 89 1000.6
20260508061153 6 0 9.7 16.1 0.00 1.70 0.00 89 1000.6
20260508060650 6 0 9.7 16.1 0.00 1.70 0.00 89 1000.4
20260508060150 6 0 9.7 16.1 0.00 1.70 0.00 89 1000.5
20260508055939 6 0 9.7 14.5 0.00 1.73 0.00 89 1000.5
20260508055149 6 0 8.0 14.5 0.00 1.73 0.00 89 1000.5
20260508054651 7 0 6.4 16.1 0.00 1.73 0.00 88 1000.6
20260508054151 7 0 8.0 16.1 0.00 1.73 0.00 88 1000.6
20260508053650 7 0 8.0 17.7 0.00 1.73 0.00 88 1000.6
20260508053150 7 0 11.3 19.3 0.00 1.73 0.00 88 1000.4
20260508052651 7 0 12.9 19.3 0.00 1.73 0.00 89 1000.5
20260508052150 7 0 9.7 16.1 0.00 1.73 0.00 89 1000.5
20260508051651 7 0 11.3 16.1 0.00 1.73 0.00 89 1000.9
20260508051149 7 0 8.0 11.3 0.00 1.73 0.00 88 1001.0
20260508050648 7 0 6.4 8.0 0.00 1.73 0.00 88 1000.9
20260508050150 7 0 6.4 11.3 0.00 1.73 0.00 88 1000.9
20260508045649 7 0 6.4 11.3 0.00 1.73 0.00 88 1000.7
20260508045149 7 0 8.0 14.5 0.00 1.73 0.00 88 1000.7
20260508044649 7 0 6.4 14.5 0.00 1.73 0.00 87 1000.7
20260508044437 7 0 9.7 14.5 0.00 1.73 0.00 87 1000.8
20260508043936 7 0 9.7 16.1 0.00 1.73 0.00 87 1000.8
20260508043148 7 0 9.7 16.1 0.00 1.73 0.00 87 1000.9
20260508042650 7 0 9.7 14.5 0.00 1.73 0.00 88 1000.9
20260508042149 7 0 9.7 11.3 0.00 1.73 0.00 88 1001.0
20260508041803 8 0 4.8 8.0 0.00 1.73 0.00 87 1001.4
20260508041742 7 0 8.0 11.3 0.00 1.73 0.00 87 1001.2
20260508041211 8 0 6.4 8.0 0.00 1.73 0.00 88 1001.4
20260508040439 8 0 4.8 9.7 0.00 1.73 0.00 87 1001.5
20260508035646 8 0 6.4 11.3 0.00 1.73 0.00 87 1001.4
20260508035145 8 0 6.4 11.3 0.00 1.73 0.00 88 1001.4
20260508034646 8 0 4.8 9.7 0.00 1.73 0.00 88 1001.5
20260508034146 8 0 6.4 9.7 0.00 1.73 0.00 89 1001.4
20260508033645 8 0 6.4 9.7 0.00 1.73 0.00 89 1001.5
20260508033146 8 0 6.4 11.3 0.00 1.73 0.00 90 1001.5
20260508032645 8 0 8.0 11.3 0.00 1.73 0.00 91 1001.3
20260508032146 8 0 6.4 9.7 0.00 1.73 0.00 91 1001.2
20260508031647 8 0 4.8 6.4 0.00 1.73 0.00 91 1001.0
20260508031145 8 0 3.2 6.4 0.00 1.73 0.00 91 1001.0
20260508030645 8 0 3.2 6.4 0.00 1.73 0.00 90 1001.0
20260508030143 8 0 3.2 6.4 0.00 1.73 0.00 90 1001.2
20260508025644 9 0 4.8 6.4 0.00 1.73 1.73 90 1001.3
20260508025144 9 0 0.0 0.0 0.00 1.73 1.73 89 1001.2
20260508024645 9 0 0.0 3.2 0.00 1.73 1.73 89 1001.4
20260508024145 9 0 0.0 6.4 0.00 1.73 1.73 88 1001.4
20260508023927 9 0 1.6 6.4 0.00 1.73 1.73 88 1001.3
20260508023433 9 0 4.8 6.4 0.00 1.73 1.73 88 1001.4
20260508022643 10 0 4.8 8.0 0.00 1.73 1.73 87 1001.4
20260508022143 10 0 6.4 9.7 0.00 1.73 1.73 87 1001.5
20260508021643 10 0 4.8 9.7 0.00 1.73 1.73 87 1001.4
20260508021428 10 0 6.4 9.7 0.00 1.73 1.73 87 1001.4
20260508020643 10 0 6.4 11.3 0.00 1.73 1.73 87 1001.6
20260508020143 10 0 6.4 14.5 0.00 1.73 1.73 87 1001.5
20260508015644 10 0 8.0 14.5 0.00 1.73 1.73 87 1001.7
20260508015143 10 0 8.0 14.5 0.00 1.73 1.73 87 1001.6
20260508014644 10 0 8.0 16.1 0.00 1.73 1.73 88 1001.6
20260508014141 10 0 9.7 16.1 0.00 1.73 1.73 88 1001.8
20260508013643 10 0 8.0 14.5 0.00 1.73 1.73 89 1001.7
20260508013142 10 0 9.7 14.5 0.00 1.73 1.73 90 1001.6
20260508012641 10 0 9.7 14.5 0.00 1.73 1.73 91 1001.6
20260508012142 10 0 8.0 11.3 0.00 1.73 1.73 92 1001.7
20260508011643 10 0 3.2 4.8 0.00 1.73 1.73 91 1001.7
20260508011141 10 0 0.0 0.0 0.00 1.73 1.73 92 1001.5
20260508010642 10 0 0.0 0.0 0.00 1.73 1.73 91 1001.6
20260508010141 10 0 0.0 0.0 0.00 1.73 1.73 91 1001.3
20260508005642 10 0 0.0 0.0 0.00 1.73 1.73 91 1001.2
20260508005142 10 0 0.0 0.0 0.00 1.73 1.73 91 1001.3
20260508004642 11 0 0.0 0.0 0.00 1.73 1.73 90 1001.2
20260508004141 11 0 0.0 0.0 0.00 1.73 1.73 90 1001.1
20260508003645 11 0 0.0 0.0 0.00 1.73 1.73 90 1001.2
20260508003140 11 0 0.0 0.0 0.00 1.73 1.73 89 1001.0
20260508002640 11 0 0.0 0.0 0.00 1.73 1.73 89 1000.8
20260508002141 11 0 0.0 0.0 0.00 1.73 1.73 89 1000.8
20260508001640 11 0 0.0 0.0 0.00 1.73 1.73 89 1000.8
20260508001142 11 0 0.0 0.0 0.00 1.73 1.73 89 1000.7
20260508000641 11 0 0.0 0.0 0.00 1.73 1.73 88 1000.6
20260508000140 12 0 0.0 0.0 0.00 1.73 1.73 88 1000.7
20260507235640 12 0 0.0 0.0 0.00 1.73 1.73 87 1000.4
20260507235140 12 0 0.0 0.0 0.00 1.73 1.73 89 1000.4
20260507234639 12 0 0.0 0.0 0.00 1.73 1.73 86 1000.3
20260507234139 12 0 0.0 0.0 0.00 1.73 1.73 85 1000.0
20260507233639 12 0 0.0 0.0 0.00 1.73 1.73 84 1000.0
20260507233139 13 0 0.0 6.4 0.00 1.73 1.73 85 1000.1
20260507232639 13 0 3.2 6.4 0.00 1.73 1.73 84 1000.2
20260507232139 13 0 0.0 0.0 0.00 1.73 1.73 83 1000.2
20260507231638 13 0 0.0 0.0 0.00 1.73 1.73 81 1000.2
20260507231140 13 0 0.0 0.0 0.00 1.73 1.73 80 1000.1
20260507230638 13 0 0.0 0.0 0.00 1.73 1.73 79 1000.1
20260507230138 13 0 0.0 8.0 0.00 1.73 1.73 78 1000.0
20260507225638 13 0 0.0 11.3 0.00 1.73 1.73 78 1000.0
20260507225138 13 0 4.8 14.5 0.00 1.73 1.73 77 1000.0
20260507224639 13 0 8.0 16.1 0.00 1.73 1.73 76 999.9
20260507224139 14 0 9.7 19.3 0.00 1.73 1.73 75 999.9
20260507223639 14 0 9.7 19.3 0.00 1.73 1.73 74 999.9
20260507223138 14 0 8.0 19.3 0.00 1.73 1.73 75 999.9
20260507222637 14 0 11.3 19.3 0.00 1.73 1.73 75 999.9
20260507222138 15 0 11.3 19.3 0.00 1.73 1.73 75 999.9
20260507221922 15 0 9.7 19.3 0.00 1.73 1.73 75 999.9
20260507221137 15 0 6.4 20.9 0.00 1.73 1.73 76 999.6
20260507220637 15 0 14.5 24.1 0.00 1.73 1.73 75 999.6
20260507220136 15 0 16.1 24.1 0.00 1.73 1.73 75 999.8
20260507215639 15 0 11.3 24.1 0.00 1.73 1.73 76 999.8
20260507215136 15 0 14.5 25.7 0.00 1.73 1.73 74 999.8
20260507214920 15 0 17.7 25.7 0.00 1.73 1.73 75 999.7
20260507214134 15 0 9.7 19.3 0.00 1.73 1.73 79 999.8
20260507213633 15 0 12.9 24.1 0.00 1.73 1.73 78 999.9
20260507213115 15 0 14.5 25.7 0.00 1.73 1.73 79 999.9
20260507212614 15 0 14.5 22.5 0.00 1.73 1.73 81 1000.0
20260507212116 15 0 11.3 19.3 0.00 1.73 1.73 83 999.9
20260507211612 15 0 8.0 11.3 0.00 1.73 1.73 84 999.8
20260507211114 15 0 8.0 16.1 0.00 1.73 1.73 84 999.7
20260507210611 15 0 9.7 16.1 0.00 1.73 1.73 84 999.7
20260507210112 15 0 9.7 16.1 0.00 1.73 1.73 88 999.6
20260507205612 15 0 1.6 9.7 0.00 1.73 1.73 91 999.5
20260507205112 15 0 4.8 9.7 0.00 1.73 1.73 92 999.4
20260507204609 15 0 3.2 11.3 0.00 1.73 1.73 94 999.6
20260507204110 14 0 1.6 14.5 0.00 1.73 1.73 95 999.6
20260507203607 13 0 6.4 14.5 0.00 1.73 1.73 95 999.5
20260507203108 13 0 0.0 16.1 0.00 1.73 1.73 95 999.6
20260507202608 13 0 6.4 16.1 0.00 1.73 1.73 96 999.7
20260507202105 13 0 0.0 8.0 0.00 1.73 1.73 96 999.7
20260507201605 13 0 0.0 6.4 0.00 1.73 1.73 96 999.8
20260507201105 12 0 1.6 6.4 0.00 1.73 1.73 96 999.8
20260507200605 12 0 0.0 6.4 0.00 1.73 1.73 96 1000.0
20260507200105 12 0 0.0 6.4 0.00 1.73 1.73 96 999.9
20260507195603 12 0 0.0 6.4 0.00 1.73 1.73 96 999.9
20260507195224 13 0 0.0 6.4 0.00 1.73 1.73 96 999.9
20260507195203 12 0 1.6 6.4 0.00 1.73 1.73 96 999.9
20260507194629 12 0 1.6 6.4 0.00 1.73 1.73 96 999.9
20260507193602 13 0 0.0 8.0 0.00 1.73 1.73 96 999.9
20260507193342 13 0 0.0 6.4 0.00 1.73 1.73 96 999.9
20260507193337 13 0 0.0 8.0 0.03 1.73 1.73 96 999.9
20260507193258 13 0 0.0 8.0 0.00 1.73 1.73 96 999.7
20260507192724 13 0 0.0 6.4 0.00 1.73 1.73 96 999.7
20260507191628 13 0 0.0 3.2 0.00 1.73 1.73 96 1000.0
20260507190845 13 0 1.6 8.0 0.03 1.73 1.73 96 1000.0
20260507185602 13 0 0.0 6.4 0.03 1.73 1.73 96 1000.0
20260507185102 13 0 0.0 6.4 0.03 1.73 1.73 96 1000.1
20260507184559 13 0 1.6 6.4 0.03 1.73 1.73 96 1000.2
20260507184058 12 0 0.0 0.0 0.03 1.73 1.73 96 1000.1
20260507183550 12 0 0.0 0.0 0.03 1.73 1.73 96 1000.1
20260507183052 12 0 0.0 6.4 0.03 1.73 1.73 96 1000.2
20260507182551 12 0 0.0 6.4 0.03 1.73 1.73 96 1000.1
20260507182049 12 0 0.0 3.2 0.03 1.73 1.73 96 1000.1
20260507181834 12 0 0.0 4.8 0.03 1.73 1.73 96 1000.3
20260507181050 11 0 0.0 4.8 0.00 1.70 1.70 96 1000.4
20260507180547 11 0 0.0 8.0 0.00 1.70 1.70 96 1000.4
20260507180055 11 0 3.2 9.7 0.00 1.70 1.70 96 1000.6
20260507175549 11 0 3.2 9.7 0.00 1.70 1.70 96 1000.7
20260507175044 11 0 3.2 16.1 0.03 1.70 1.70 96 1000.9
20260507174544 10 0 4.8 16.1 0.05 1.70 1.70 96 1000.8
20260507174045 10 0 4.8 14.5 0.05 1.70 1.70 96 1000.7
20260507173828 10 0 0.0 9.7 0.05 1.70 1.70 96 1000.3
20260507173323 10 0 0.0 17.7 0.05 1.70 1.70 96 1000.4
20260507172538 10 0 4.8 17.7 0.05 1.70 1.70 96 1000.9
20260507172039 10 0 6.4 17.7 0.05 1.70 1.70 96 1000.4
20260507171537 10 0 3.2 6.4 0.10 1.70 1.70 96 1000.2
20260507171320 10 0 0.0 6.4 0.13 1.70 1.70 96 999.9
20260507170822 10 0 0.0 6.4 0.15 1.70 1.70 96 999.8
20260507170048 10 0 0.0 6.4 0.20 1.70 1.70 96 1000.3
20260507165537 10 0 0.0 6.4 0.20 1.70 1.70 96 1000.9
20260507165033 10 0 0.0 6.4 0.18 1.68 1.68 96 1001.0
20260507164814 10 0 0.0 6.4 0.15 1.65 1.65 96 1000.8
20260507164038 10 0 1.6 4.8 0.18 1.65 1.65 96 1000.9
20260507163532 10 0 0.0 4.8 0.15 1.65 1.65 96 1000.8
20260507163034 10 0 0.0 0.0 0.15 1.65 1.65 96 1000.8
20260507162533 10 0 0.0 0.0 0.18 1.65 1.65 96 1000.5
20260507162035 10 0 0.0 0.0 0.18 1.63 1.65 96 1000.5
20260507161531 10 0 0.0 0.0 0.15 1.60 1.60 96 1000.6
20260507161033 10 0 0.0 9.7 0.18 1.57 1.57 96 1001.2
20260507160531 10 0 0.0 9.7 0.15 1.55 1.55 96 1001.7
20260507160052 10 0 0.0 4.8 0.15 1.50 1.50 96 1002.0
20260507155531 10 0 0.0 1.6 0.20 1.50 1.50 96 1001.6
20260507155031 10 0 0.0 8.0 0.23 1.50 1.50 96 1001.4
20260507154531 9 0 1.6 9.7 0.28 1.50 1.50 96 1001.3
20260507154035 9 0 3.2 9.7 0.36 1.47 1.47 96 1001.5
20260507153531 9 0 1.6 9.7 0.48 1.47 1.47 96 1001.6
20260507153033 9 0 0.0 9.7 0.53 1.47 1.47 96 1001.7
20260507152529 9 0 0.0 4.8 0.56 1.45 1.45 96 1001.6
20260507152032 9 0 1.6 8.0 0.58 1.45 1.45 96 1001.4
20260507151531 9 0 1.6 8.0 0.61 1.45 1.45 96 1001.9
20260507151037 10 0 0.0 8.0 0.61 1.40 1.40 96 1002.1
20260507150528 10 0 1.6 8.0 0.64 1.37 1.37 96 1002.2
20260507150048 10 0 1.6 4.8 0.61 1.35 1.35 96 1002.2
20260507145528 10 0 0.0 4.8 0.58 1.30 1.30 96 1002.0
20260507145032 10 0 1.6 4.8 0.56 1.27 1.27 96 1002.2
20260507144526 10 0 0.0 1.6 0.51 1.22 1.22 96 1002.6
20260507144028 10 0 0.0 0.0 0.43 1.09 1.12 96 1002.4
20260507143526 10 0 0.0 0.0 0.30 0.99 0.99 96 1002.1
20260507143033 10 0 0.0 0.0 0.23 0.94 0.94 96 1002.4
20260507142526 10 0 0.0 0.0 0.20 0.89 0.89 96 1002.6
20260507142029 10 0 0.0 8.0 0.18 0.86 0.89 96 1002.5
20260507141525 10 0 3.2 8.0 0.15 0.84 0.84 96 1003.2
20260507141028 10 0 0.0 4.8 0.08 0.76 0.79 96 1003.2
20260507140525 10 0 0.0 4.8 0.05 0.74 0.74 96 1002.6
20260507140029 10 0 0.0 6.4 0.03 0.71 0.71 96 1002.2
20260507135525 10 0 0.0 9.7 0.03 0.71 0.71 96 1002.5
20260507135032 10 0 1.6 9.7 0.00 0.71 0.71 96 1002.7
20260507134524 10 0 1.6 8.0 0.00 0.71 0.71 96 1002.9
20260507134030 10 0 3.2 9.7 0.00 0.71 0.71 96 1003.0
20260507133524 10 0 0.0 11.3 0.00 0.71 0.71 96 1002.9
20260507133034 10 0 1.6 11.3 0.00 0.71 0.71 96 1002.9